Location: Bassano
(45.7667°N, 11.7333°E)
Time: 03:22:01
(UTC+00:00)

STARLINK-1268 - Pass Details

Date: 07 June 2020
Orbit: 370 x 372 km, 53.0° (Epoch: 11 July)

Event Time Altitude Azimuth Distance (km) Brightness Sun altitude
Exits shadow 00:00:15 43° 75° (ENE) 547 3.7 -20.6°
Drops below altitude 10° 00:02:32 10° 62° (ENE) 1,406 6.2 -20.5°
Sets 00:04:36 0° 60° (ENE) 2,259 7.4 -20.4°
